Location: Powder Track
(41.8531°N, 72.3584°W)
Time: 08:36:51
(UTC+00:00)

Altair - Pass Details

Date: 01 August 2021
Orbit: 1501 x 1682 km, 47.2° (Epoch: 19 September)

Event Time Altitude Azimuth Distance (km) Brightness Sun altitude
Exits shadow 05:56:19 53° 177° (S) 1,843 7.5 -28.6°
Maximum altitude 05:57:52 58° 142° (SE) 1,748 7.5 -28.5°
Drops below altitude 10° 06:06:50 10° 67° (ENE) 3,669 10.0 -28.0°
Sets 06:09:53 0° 63° (ENE) 4,644 10.7 -27.8°
